Regional Weather Roundup
Issued by NWS

Home | Current Version | Previous Version | Text Only | Print | Product List | Glossary On
Versions: 1 2 3 4 5 6 7 8 9 10 11 12 13 14 15 16 17 18 19 20 21 22 23 24 25 26 27 28 29 30 31 32 33 34 35 36 37 38 39 40 41 42 43 44 45 46 47 48 49 50
000
ASUS44 KLUB 280210
RWRTX
WEST TEXAS WEATHER ROUNDUP
NATIONAL WEATHER SERVICE LUBBOCK TX
900 PM CDT THU APR 27 2017

NOTE: "FAIR" INDICATES FEW OR NO CLOUDS BELOW 12,000 FEET WITH NO
SIGNIFICANT WEATHER AND/OR OBSTRUCTIONS TO VISIBILITY.

TXZ004-006>008-010-012-014-016-OKZ002-280300-
TEXAS PANHANDLE/OKLAHOMA PANHANDLE

CITY           SKY/WX    TMP DP  RH WIND       PRES   REMARKS
AMARILLO       PTCLDY    64  39  39 N10       29.50R
BORGER         PTCLDY    70  35  27 W6        29.47R
CANADIAN       CLOUDY    63  51  65 SE9       29.46R
DALHART        CLEAR     63  29  27 W23G30    29.50R
DUMAS          CLEAR     63  34  33 W9        29.49R
GUYMON         CLOUDY    58  42  55 W9        29.44R
HEREFORD       MOCLDY    63  45  51 E7G17     29.50R
PAMPA          MOCLDY    63  46  54 S7        29.51R
PERRYTON       PTCLDY    64  46  51 S15       29.42R
$$

TXZ026-029-035-045-048-280300-
SOUTHERN PANHANDLE/SOUTH PLAINS/ROLLING PLAINS

CITY           SKY/WX    TMP DP  RH WIND       PRES   REMARKS
CHILDRESS      CLOUDY    69  47  45 E13G20    29.42R
SEMINOLE       CLEAR     79  32  18 SW12      29.50R
LUBBOCK        CLOUDY    81  29  15 SW15      29.44R
PLAINVIEW      CLOUDY    66  46  48 NE16G24   29.44R
SNYDER         CLEAR    N/A N/A N/A S13G20    29.47R
$$

TXZ052-054-060>062-072-078-127-140-154-169-280300-
PERMIAN BASIN/CONCHO VALLEY/BIG COUNTRY/EDWARDS PLATEAU

CITY           SKY/WX    TMP DP  RH WIND       PRES   REMARKS
ABILENE        CLEAR     79  49  34 S20G31    29.47F
BIG SPRING     CLEAR     78  43  28 S20G25    29.50S
BROWNWOOD      PTCLDY    77  48  36 S14G24    29.54R
JUNCTION       CLEAR     77  50  38 S5        29.59S
MIDLAND        CLEAR     83  34  17 SW10      29.49R
ODESSA         CLEAR     83  32  16 SW8       29.50R
SAN ANGELO     PTCLDY    79  48  33 S21G38    29.49S
SONORA         CLEAR     77  52  41 S10G18    29.62S
SWEETWATER     CLEAR     78  42  27 S20       29.49S
WINK           CLEAR     85  32  15 W14       29.48R
$$

TXZ055-058-074-075-080-082-280300-
FAR WEST/SOUTHWEST MOUNTAINS/TRANS PECOS

CITY           SKY/WX    TMP DP  RH WIND       PRES   REMARKS
ALPINE         CLOUDY    75  28  17 S6        29.71S
DRYDEN           N/A     80  52  37 E10G21    29.54S
EL PASO        MOCLDY    84  25  11 W23G47    29.58R
FORT STOCKTON  PTCLDY    84  31  14 SW9       29.53R
GUADALUPE PASS CLEAR     74  32  21 W37G47    29.66R
MARFA          CLOUDY    73  30  20 W10       29.70R
PECOS          CLEAR     85  36  17 W9        29.49R
PRESIDIO       FAIR      91  29  11 SE5       29.54S
$$

TXZ014-016-019-021>030-083-280300
TEXAS TECH WEST TEXAS MESONET/TEXAS PANHANDLE/NORTHERN SOUTH PLAINS

CITY           SKY/WX    TMP DP  RH WIND       PRES   REMARKS
ABERNATHY 5ENE   N/A     76  34  21 SW10      29.45R
AMARILLO 9NNE    N/A     65  37  35 NE1       29.50R
AMARILLO 7SSE    N/A     64  38  37 N8        29.51R
AMHERST 1NE      N/A     75  29  18 SW8       29.46R
BOOTLEG 11WNW    N/A     62  35  37 N12       29.55R
CANADIAN 6E      N/A     61  49  64 SE13      29.46R
CAPROCK CYN SP   N/A     65  47  53 N3        29.47R
CHILDRESS 2NNE   N/A     68  48  48 NE8       29.42R
CLARENDON 2WSW   N/A     62  48  59 NE13      29.47R
CLAUDE 12SW      N/A     61  46  57 NE12      29.51R
DIMMITT 2NE      N/A     63  46  55 N6        29.50R
FLOYDADA 2NNE    N/A     65  45  49 NE10      29.44R
FRIONA 2NE       N/A     64  38  38 N3        29.50R
GOODLETT 3W      N/A     72  46  38 E20       29.40R
HART 3N          N/A     65  48  55 N6        29.50R
HEREFORD 2NW     N/A     65  39  38 E5        29.49R
MCLEAN 1E        N/A     62  46  54 E14       29.47R
MEMPHIS 1NE      N/A     66  47  51 NE10      29.43S
MULESHOE 2SSW    N/A     72  34  24 N7        29.48R
OLTON 6S         N/A     70  35  27 W6        29.45R
PALO DURO SP     N/A     69  38  32 N7        29.50R
PAMPA 2E         N/A     61  46  58 S1        29.51R
PLAINVIEW 1S     N/A     67  47  48 NE8       29.46R
SILVERTON 7ESE   N/A     63  45  51 NE13      29.47R
TULIA 2ENE       N/A     62  47  58 E6        29.49R
TURKEY 2WSW      N/A     66  49  53 NE13      29.42S
UMBARGER 3NNE    N/A     64  38  38 NE13      29.52R
$$

TXZ033>036-039>041-045>048-280300
TEXAS TECH WEST TEXAS MESONET/SOUTH PLAINS

CITY           SKY/WX    TMP DP  RH WIND       PRES   REMARKS
AIKEN 3WSW       N/A     66  47  50 NE16      29.46R
ANDREWS 2NE      N/A     81  30  15 SW13      29.50R
ANTON 6SSW       N/A     75  33  21 SW12      29.46R
BROWNFIELD 2S    N/A     77  30  18 SW10      29.47R
DENVR CTY 7WNW   N/A     73  29  19 SW8       29.50R
GAIL 2ESE        N/A     78  40  25 S12       29.45R
LAMESA 2SE       N/A     74  36  25 SW9       29.48R
LEVELLAND 4S     N/A     76  27  16 SW9       29.47R
LUBBOCK 3WNW     N/A     79  29  15 SW10      29.45R
MORTON 1ENE      N/A     77  28  16 SW9       29.47R
ODONNELL 1N      N/A     78  28  15 SW13      29.47R
PLAINS 3N        N/A     79  26  14 SW15      29.49R
RALLS 1SE        N/A     77  30  17 SW15      29.45R
REESE CENTER     N/A     76  28  17 SW12      29.46R
SEAGRAVES 1SW    N/A     75  30  19 S8        29.48R
SEMINOLE 2NNE    N/A     79  28  15 S9        29.49R
SLATON 2NE       N/A     76  31  18 SW13      29.45S
SNYDER 3E        N/A     78  42  27 S17       29.46R
SUNDOWN 8SW      N/A     77  29  17 SW14      29.48R
TAHOKA 3NNE      N/A     74  31  20 SW9       29.46S
WOLFFORTH 6SSW   N/A     76  27  16 SW9       29.46S
$$

TXZ031-032-036>038-042>044-280300-
TEXAS TECH WEST TEXAS MESONET/ROLLING PLAINS

CITY           SKY/WX    TMP DP  RH WIND       PRES   REMARKS
ASPERMONT 3NE    N/A     82  40  22 S18       29.40R
FLUVANNA 3WNW    N/A     77  37  23 S14       29.46R
GRAHAM 5SSW      N/A     81  29  15 S12       29.45S
GUTHRIE 10WSW    N/A     83  39  21 S20G29    29.38R
HASKELL 1NW      N/A     81  40  23 S15       29.40R
JAYTON 1SSE      N/A     82  39  22 S14       29.41R
KNOX CITY 3NW    N/A     82  39  21 S18       29.37R
LK A HENRY 1NW   N/A     80  40  24 S10       29.43R
NORTHFIELD 1S    N/A     68  48  49 NE12      29.40R
ODELL 4ENE       N/A     70  49  46 E24       29.42R
PADUCAH 10SW     N/A     71  45  38 NW3       29.38R
POST 1NE         N/A     81  30  15 SW8       29.43R
RRING SPRGS 3N   N/A     66  47  50 N7        29.41R
SEYMOUR 3NW      N/A     77  45  32 SE16      29.40R
SPUR 1W          N/A     80  31  16 S14       29.40R
WEINERT 2NNE     N/A     81  44  26 S22       29.39R
WHITE RVR 6NE    N/A     78  29  16 SW10      29.42R
$$

TXZ052-054-060>062-072-078-127-140-154-169-280300-
TEXAS TECH WEST TEXAS MESONET/PERMIAN BASIN/
CONCHO VALLEY/BIG COUNTRY/EDWARDS PLATEAU

CITY           SKY/WX    TMP DP  RH WIND       PRES   REMARKS
COYANOSA 2N      N/A     87  35  15 W8        29.50R
JUNCTION 1SSW    N/A     76  51  41 S5        29.59S
MERTZON 3NNE     N/A     77  49  38 S18       29.53R
SAN ANGELO 7NW   N/A     77  46  33 S15       29.52R
STRLNG CT 4WSW   N/A     77  45  32 SE12      29.51R
ST LAWRNCE 5SW   N/A     76  42  29 S20       29.52R
SWEETWATR 11SW   N/A     76  46  34 S17       29.50R
WALL 1E          N/A     78  50  37 S23       29.51R
$$

TXZ055-058-074-075-080-082-280300-
TEXAS TECH WEST TEXAS MESONET/FAR WEST/SOUTHWEST MOUNTAINS/TRANS PECOS

CITY           SKY/WX    TMP DP  RH WIND       PRES   REMARKS
PRSMN GAP BBNP   N/A     89  29  11 CALM      29.55S
GUADLPE MTN NP   N/A     73  29  19 S5        29.70S
$$



USA.gov is the U.S. government's official web portal to all federal, state and local government web resources and services.